Regional Weather Roundup
Issued by NWS

Home | Current Version | Previous Version | Text Only | Print | Product List | Glossary Off
Versions: 1 2 3 4 5 6 7 8 9 10 11 12 13 14 15 16 17 18 19 20 21 22 23 24 25 26 27 28 29 30 31 32 33 34 35 36 37 38 39 40 41 42 43 44 45 46 47 48 49 50

000
ASUS43 KOAX 020202
RWRNE

WEATHER ROUNDUP FOR NEBRASKA
NATIONAL WEATHER SERVICE OMAHA NE
900 PM CDT FRI AUG 01 2014

NOTES: SATELLITE DATA IS BEING USED TO AUGMENT CLOUD COVER ABOVE
       12000 FEET.
       "FAIR" INDICATES FEW OR NO CLOUDS BELOW 12,000 FEET WITH NO
       SIGNIFICANT WEATHER AND/OR OBSTRUCTIONS TO VISIBILITY.

  * THESE STATIONS DO NOT REPORT WEATHER SUCH AS RAIN...SNOW OR FOG.

NEZ001>004-019>022-054>056-020300-
NEBRASKA PANHANDLE

CITY           SKY/WX    TMP DP  RH WIND       PRES   REMARKS
SCOTTSBLUFF    CLEAR     81  53  37 E6        30.13S
ALLIANCE       CLOUDY    80  41  24 SW6       30.13S
CHADRON        MOCLDY    79  47  32 SE7       30.08R
KIMBALL        CLEAR     73  51  45 S6        30.20F
SIDNEY         PTCLDY    74  42  31 S8        30.18S
$$

NEZ057>060-069>072-079>082-020300-
SOUTHWEST NEBRASKA

CITY           SKY/WX    TMP DP  RH WIND       PRES   REMARKS
NORTH PLATTE   CLEAR     71  61  70 E8        30.09S
IMPERIAL       PTCLDY    77  53  43 S6        30.13R
MCCOOK         PTCLDY    78  58  49 E8        30.10S
$$

NEZ005>010-023>029-035>040-094-020300-
NORTH CENTRAL NEBRASKA

CITY           SKY/WX    TMP DP  RH WIND       PRES   REMARKS
VALENTINE      TSTM      74  58  57 NW25G38   30.10R
AINSWORTH      PTCLDY    78  56  47 SE13      30.07S
BROKEN BOW     CLEAR     74  61  63 SE8       30.10R
ORD            CLEAR     73  58  59 SE7       30.08S
$$

NEZ041-046>049-061>064-073>077-083>087-020300-
SOUTH CENTRAL NEBRASKA

CITY           SKY/WX    TMP DP  RH WIND       PRES   REMARKS
GRAND ISLAND   CLEAR     73  61  65 E3        30.10S
AURORA         CLEAR     71  66  85 CALM      30.09S
HASTINGS       CLEAR     72  58  61 E5        30.10S
HEBRON         CLEAR     75  62  64 N3        30.07R
HOLDREGE       CLEAR     72  62  71 E9        30.10S
KEARNEY *      CLEAR     72  57  60 E8        30.11S
YORK           CLEAR     72  66  83 E5        30.08F
$$

NEZ011>018-030>034-042>045-020300-
NORTHEAST NEBRASKA

CITY           SKY/WX    TMP DP  RH WIND       PRES   REMARKS
NORFOLK        CLEAR     72  60  66 S5        30.08R
ALBION         CLEAR     71  61  70 CALM      30.10S
BLAIR          CLEAR     75  61  62 E3        30.08S
COLUMBUS *     CLEAR     70  61  73 E5        30.08S
FREMONT        CLEAR     77  62  59 E3        30.08R
TEKAMAH        CLEAR     73  65  75 E6        30.07S
$$

NEZ050>053-065>068-078-088>093-020300-
SOUTHEAST NEBRASKA

CITY           SKY/WX    TMP DP  RH WIND       PRES   REMARKS
LINCOLN        CLEAR     77  58  51 E5        30.08R
OMAHA EPPLEY   PTCLDY    77  63  61 CALM      30.07R
BEATRICE       MOCLDY    74  63  67 E6        30.07R
FALLS CITY     CLEAR     75  62  64 E3        30.04S
NEBRASKA CITY  CLEAR     73  62  67 CALM      30.07S
PLATTSMOUTH    CLEAR     73  62  68 CALM      30.07S
$$

NEZ044-045-051>053-067-020300-
OMAHA AREA

CITY           SKY/WX    TMP DP  RH WIND       PRES   REMARKS
OMAHA EPPLEY   PTCLDY    77  63  61 CALM      30.07R
BLAIR          CLEAR     75  61  62 E3        30.08S
FREMONT        CLEAR     77  62  59 E3        30.08R
PLATTSMOUTH    CLEAR     73  62  68 CALM      30.07S
WAHOO          FAIR      73  66  79 E5        30.08R
$$



USA.gov is the U.S. government's official web portal to all federal, state and local government web resources and services.